Other Public Products
Issued by NWS Charleston, SC

Current Version | Previous Version | Graphics & Text | Print | Product List | Glossary On
Versions: 1 2 3 4 5 6 7 8 9 10 11 12 13 14 15 16 17 18 19 20 21 22 23 24 25 26 27 28 29 30 31 32 33 34 35 36 37 38 39 40 41 42 43 44 45 46 47 48 49 50
000 FPUS82 KCHS 270227 OPUCHS TEST...KCHS/KSAV Gateway Observations...TEST National Weather Service Charleston SC 1000 PM EDT FRI MAY 26 2017 NOTE: "fair" indicates few or no clouds below 12,000 feet with no significant weather and/or obstructions to visibility. SCZ050-WAZ558-NCZ071-TXZ119-213-PAZ071-DCZ001-FLZ074-172-MI076- NYZ176-178-MAZ016-IL014-TNZ027-NJZ106-GAZ044-MD014-270300- ...Gateway Observations for Charleston International... CITY SKY/WX TMP DP RH WIND PRES REMARKS Chas Airport PTCLDY 70 57 63 SW6 29.98R Seattle MOSUNNY 78 43 28 N9 29.96S Charlotte PTCLDY 70 57 63 S3 29.97R Dallas DFW CLOUDY 85 74 69 S14 29.76R HX 92 Dallas Love CLOUDY 86 73 65 S10 29.77R HX 93 Philladelphia MOCLDY 70 53 54 W13 29.83R Wash National CLEAR 69 55 60 N5 29.89R Baltimore PTCLDY 62 55 77 W6 29.87R Miami MOCLDY 83 76 79 E9 30.05R HX 91 Detroit LGT RAIN 64 57 78 S5 29.89R Newark MOCLDY 70 54 56 NW13 29.77R Laguardia PTCLDY 68 52 56 NW16G25 29.76R J F K PTCLDY 70 53 54 NW17 29.77R Boston Logan CLOUDY 53 53 100 E5 29.72R Ft. Lauderdale MOCLDY 81 76 84 E10 30.04R Chicago O`Hare LGT RAIN 56 53 90 NE12 29.84R Chicago Midway CLOUDY 57 55 93 N12 29.84R Houston Bush CLOUDY 82 74 76 S15 29.89R Houston Hobby CLOUDY 80 75 84 S10 29.90R Nashville PTCLDY 78 59 51 SW5 29.91R Atlanta PTCLDY 75 60 59 SW7 29.99S $$ GAZ044-118-TXZ119-213-NCZ071-DCZ001-MDZ014-506-PAZ021-071-NJZ106- NYZ176-178-MAZ106-OHZ011-021-055-MIZ076-KYZ091-ILZ014-INZ047- MNZ060-ONZ431-270300- ...Gateway Observations for Savannah International... CITY SKY/WX TMP DP RH WIND PRES REMARKS Savannah Arpt PTCLDY 71 57 61 CALM 29.99R Atlanta PTCLDY 75 60 59 SW7 29.99S Charlotte PTCLDY 70 57 63 S3 29.97R Dallas DFW CLOUDY 85 74 69 S14 29.76R HX 92 Houston Bush CLOUDY 82 74 76 S15 29.89R Wash National CLEAR 69 55 60 N5 29.89R Wash Dulles PTCLDY 67 54 63 N5 29.89R Baltimore PTCLDY 62 55 77 W6 29.87R Philadelphia MOCLDY 70 53 54 W13 29.83R Newark MOCLDY 70 54 56 NW13 29.77R Laguardia PTCLDY 68 52 56 NW16G25 29.76R J F K PTCLDY 70 53 54 NW17 29.77R Boston CLOUDY 53 53 100 E5 29.72R Pittsburg MOCLDY 62 54 74 NW5 29.92R Akron CLOUDY 60 53 77 CALM 29.92S Cleveland PTCLDY 64 51 62 E3 29.91S Cincinnati CLOUDY 72 62 71 SE9 29.85F Columbus CLOUDY 65 59 79 SE5 29.87R Detroit LGT RAIN 64 57 78 S5 29.89R Chicago O`Hare LGT RAIN 56 53 90 NE12 29.84R Minneapolis PTCLDY 70 46 42 W7 29.76R Indianapolis CLOUDY 68 65 90 SE5 29.81F Toronto Canada MOCLDY 59 55 88 NW9 29.85R $$

USA.gov is the U.S. government's official web portal to all federal, state and local government web resources and services.